Weather History for Chadron, NE

Change the Weather History Date:

Monday, March 31, 2014

  Actual Average Record
Temperature  
Mean Temperature 29 °F 40 °F  
Max Temperature 43 °F 55 °F 85 °F (1946)
Min Temperature 14 °F 25 °F 2 °F (1954)
Degree Days  
Heating Degree Days 36 25  
Month to date heating degree days 898 906  
Since 1 July heating degree days 6372 6157  
Cooling Degree Days 0 0  
Month to date cooling degree days 0 0  
Year to date cooling degree days 0 0  
Moisture  
Dew Point 25 °F    
Average Humidity 85    
Maximum Humidity 100    
Minimum Humidity 69    
Precipitation  
Precipitation 0.04 in 0.04 in 0.40 in (1895)
Month to date precipitation 0.32 1.23  
Year to date precipitation 1.34 2.20  
Sea Level Pressure  
Sea Level Pressure 29.86 in    
Wind  
Wind Speed 12 mph (NNW)    
Max Wind Speed 33 mph    
Max Gust Speed 43 mph    
Visibility 5 miles    
Events Fog , Snow    
T = Trace of Precipitation, MM = Missing Value Source: NWS Daily Summary

Daily Weather History Graph

Daily Weather History Graph

Search for Another Location

Airport:

Trip Planner

Search our weather history database for the weather conditions in past years. The results will help you decide how hot, cold, wet, or windy it might be!

Date:

Astronomy

Mar. 31, 2014 Rise Set
Actual Time 6:36 AM MDT 7:17 PM MDT
Civil Twilight 6:07 AM MDT 7:46 PM MDT
Nautical Twilight 5:33 AM MDT 8:19 PM MDT
Astronomical Twilight 4:58 AM MDT 8:55 PM MDT
Moon 6:59 AM MDT (3/31) 8:41 PM MDT (3/31)
Length of Visible Light 13h 38m
Length of Day
12h 41m
New Moon, 1% of the Moon is Illuminated
Mar 31
New Moon
Apr 7
First Quarter
Apr 15
Full
Apr 22
Last Quarter
Apr 29
New

Hourly Weather History & Observations

Time (MDT) Temp. Windchill Dew Point Humidity Pressure Visibility Wind Dir Wind Speed Gust Speed Precip Events Conditions
12:53 AM 43.0 °F 35.7 °F 37.0 °F 80% 29.43 in 10.0 mi North 15.0 mph 21.9 mph N/A   Clear
1:53 AM 43.0 °F 41.3 °F 36.0 °F 76% 29.47 in 10.0 mi North 3.5 mph - N/A   Mostly Cloudy
2:45 AM 41.0 °F 32.8 °F 37.4 °F 87% 29.51 in 10.0 mi NNW 16.1 mph 25.3 mph N/A   Mostly Cloudy
2:53 AM 41.0 °F 32.5 °F 36.0 °F 82% 29.50 in 10.0 mi NNW 17.3 mph 26.5 mph N/A   Mostly Cloudy
3:11 AM 39.2 °F 32.0 °F 35.6 °F 87% 29.54 in 10.0 mi NNW 11.5 mph 23.0 mph N/A   Overcast
3:36 AM 37.4 °F 28.2 °F 35.6 °F 93% 29.54 in 7.0 mi North 16.1 mph 24.2 mph N/A   Overcast
3:53 AM 37.0 °F 28.1 °F 35.1 °F 93% 29.54 in 6.0 mi NNW 15.0 mph 21.9 mph N/A   Overcast
4:53 AM 35.1 °F 24.5 °F 34.0 °F 96% 29.59 in 2.5 mi North 18.4 mph 26.5 mph 0.01 in   Overcast
5:06 AM 33.8 °F 23.5 °F 33.8 °F 100% 29.60 in 3.0 mi NNW 16.1 mph 24.2 mph 0.00 in   Overcast
5:28 AM 33.8 °F 23.9 °F 30.2 °F 87% 29.62 in 2.0 mi NNW 15.0 mph 25.3 mph 0.00 in Snow Light Snow
5:35 AM 32.0 °F 21.6 °F 30.2 °F 93% 29.63 in 1.8 mi North 15.0 mph 21.9 mph 0.00 in Snow Light Snow
5:53 AM 30.9 °F 19.4 °F 30.0 °F 96% 29.65 in 1.2 mi North 17.3 mph 29.9 mph 0.00 in Snow Light Snow
6:05 AM 30.2 °F 17.4 °F 28.4 °F 93% 29.65 in 0.8 mi North 20.7 mph 29.9 mph 0.00 in Snow Light Snow
6:53 AM 28.0 °F 18.6 °F 27.0 °F 96% 29.74 in 0.2 mi NW 10.4 mph 20.7 mph 0.00 in Fog , Snow Snow
7:53 AM 26.1 °F 13.1 °F 24.1 °F 92% 29.78 in 0.2 mi North 17.3 mph - 0.00 in Fog , Snow Heavy Snow
8:53 AM 23.0 °F 13.9 °F 21.0 °F 92% 29.85 in 0.2 mi NNW 8.1 mph - 0.00 in Fog , Snow Snow
9:04 AM 24.8 °F 16.1 °F 19.4 °F 80% 29.80 in 0.5 mi North 8.1 mph - 0.00 in Fog , Snow Snow
9:28 AM 23.0 °F 11.7 °F 19.4 °F 86% 29.82 in 0.8 mi North 11.5 mph - 0.00 in Snow Light Snow
9:53 AM 24.1 °F 13.7 °F 19.9 °F 84% 29.91 in 0.8 mi NNW 10.4 mph - 0.00 in Snow Light Snow
10:24 AM 24.8 °F 14.6 °F 21.2 °F 86% 29.85 in 0.8 mi WNW 10.4 mph - 0.00 in Snow Light Snow
10:53 AM 26.1 °F 12.0 °F 21.9 °F 84% 29.93 in 0.5 mi NNW 20.7 mph 26.5 mph 0.00 in Fog , Snow Snow
11:00 AM 24.8 °F 14.0 °F 21.2 °F 86% 29.86 in 0.8 mi North 11.5 mph 26.5 mph 0.00 in Snow Light Snow
11:53 AM 25.0 °F 12.2 °F 21.0 °F 85% 29.96 in 1.0 mi NNW 16.1 mph 29.9 mph 0.00 in Snow Light Snow
12:26 PM 26.6 °F 10.3 °F 21.2 °F 80% 29.90 in 0.8 mi NW 29.9 mph 39.1 mph 0.00 in Snow Light Snow
12:37 PM 26.6 °F 10.8 °F 21.2 °F 80% 29.91 in 1.0 mi NW 27.6 mph 42.6 mph 0.00 in Snow Light Snow
12:53 PM 26.1 °F 9.6 °F 21.9 °F 84% 30.00 in 1.0 mi WNW 29.9 mph 36.8 mph 0.00 in Snow Light Snow
1:01 PM 26.6 °F 10.0 °F 21.2 °F 80% 29.92 in 0.5 mi WNW 31.1 mph 42.6 mph 0.00 in Fog , Snow Light Snow
1:25 PM 26.6 °F 11.1 °F 23.0 °F 86% 29.94 in 1.0 mi NW 26.5 mph 40.3 mph 0.00 in Snow Light Snow
1:43 PM 28.4 °F 14.1 °F 23.0 °F 80% 29.95 in 1.2 mi NW 24.2 mph 35.7 mph 0.00 in Snow Light Snow
1:53 PM 28.9 °F 15.4 °F 23.0 °F 78% 30.04 in 1.8 mi NW 21.9 mph 36.8 mph 0.00 in Snow Light Snow
1:55 PM 28.4 °F 14.1 °F 24.8 °F 86% 29.95 in 2.0 mi NW 24.2 mph 36.8 mph 0.00 in Snow Light Snow
2:13 PM 28.4 °F 13.8 °F 23.0 °F 80% 29.96 in 4.0 mi NW 25.3 mph 33.4 mph 0.00 in Snow Light Snow
2:53 PM 30.0 °F 17.5 °F 24.1 °F 79% 30.06 in 10.0 mi NW 19.6 mph 29.9 mph 0.03 in   Overcast
3:53 PM 32.0 °F 20.8 °F 24.1 °F 73% 30.08 in 10.0 mi NW 17.3 mph 24.2 mph N/A   Overcast
4:46 PM 32.0 °F 23.0 °F 24.8 °F 75% 30.01 in 10.0 mi NW 11.5 mph - N/A   Mostly Cloudy
4:53 PM 33.1 °F 26.1 °F 25.0 °F 72% 30.11 in 10.0 mi NNW 8.1 mph - N/A   Mostly Cloudy
5:53 PM 32.0 °F 24.8 °F 26.1 °F 79% 30.14 in 10.0 mi NE 8.1 mph - N/A   Overcast
6:53 PM 30.0 °F 20.5 °F 23.0 °F 75% 30.17 in 10.0 mi NE 11.5 mph - N/A   Overcast
7:28 PM 28.4 °F 19.7 °F 21.2 °F 74% 30.05 in 10.0 mi NE 9.2 mph - N/A   Partly Cloudy
7:53 PM 26.1 °F 16.8 °F 19.9 °F 78% 30.19 in 10.0 mi NE 9.2 mph - N/A   Clear
8:53 PM 23.0 °F 15.8 °F 19.0 °F 85% 30.22 in 10.0 mi ENE 5.8 mph - N/A   Clear
9:53 PM 21.0 °F 12.4 °F 17.1 °F 85% 30.21 in 10.0 mi ESE 6.9 mph - N/A   Clear
10:53 PM 19.0 °F - 14.0 °F 81% 30.21 in 10.0 mi Calm Calm - N/A   Clear
11:53 PM 15.1 °F 9.4 °F 10.9 °F 84% 30.22 in 10.0 mi SW 3.5 mph - N/A   Clear